www.pogodaiklimat.ru

Погода и климат >> Архив погоды >> Буркина-Фасо >> Ouahigouya


ПОГОДА в Ouahigouya

  • Прогноз погоды в Ouahigouya
  • Монитор погоды в Ouahigouya
  • Климат города

АРХИВ ПОГОДЫ в Ouahigouya

Время (UTC), дата Ветер
(напр.,м/с)
 
Видим.   Явления Облачность Т
(С)
Тd
(С)
f
(%)
Тe
(С)
Тes
(С)
Комфортность P
(гПа)
Po
(гПа)
Тmin
(С)
Tmax
(С)
R
(мм)
S
(см)
06 17.03 ЮВ 2 10 км 9/0
[Ci sp]
+24.7 +1.6 22 +24 +24 комфорт 1005.4 968.7 +24.7
09 17.03 С 1 10 км 9/0
[Ci sp]
+33.4 +1.4 13 +30 +39 жарко 1006.7 970.1
12 17.03 ЮВ 2 10 км 9/0
[Ac trans Ci sp]
+39.9 -3.2 7 +36 +52 опасность
солнечного
удара
1004.9 968.7
15 17.03 Ю 1 10 км 9/0
[Ci sp]
+41.4 -0.7 7 +37 +48 очень
жарко
1003.8 967.4
18 17.03 ЮВ 1 10 км 9/0
[Ci sp]
+39.5 +0.2 9 +36 +36 очень
жарко
1004.3 967.7 +42.1
21 17.03 ЮВ 2 10 км 9/0
[Ci sp]
+33.8 +1.2 13 +31 +31 жарко 1005.0 968.6
00 18.03 Ю 1 10 км 9/0
[Ci sp]
+29.6 +4.0 20 +28 +28 жарко 1005.2 968.8
03 18.03 ЮВ 3 10 км 9/0
[Ci sp]
+28.0 0.0 16 +26 +26 жарко 1004.7 968.4
06 18.03 В 1 10 км 9/0
[Ci sp]
+25.0 +1.9 22 +24 +24 комфорт 1005.0 968.4 +25.0
09 18.03 ЮВ 2 10 км 9/0
[Ci sp]
+33.0 +3.9 16 +30 +38 жарко 1006.5 969.9
12 18.03 Ю 3 15 км 9/0
[Ci sp]
+39.7 +6.7 13 +37 +51 опасность
солнечного
удара
1004.9 968.9
15 18.03 Ю 2 15 км 9/0
[Ci sp]
+41.3 +4.0 10 +38 +47 очень
жарко
1003.8 967.6
18 18.03 Ю 2 15 км 9/0
[Ci sp]
+39.4 +7.4 14 +37 +37 очень
жарко
1004.1 967.5 +42.0
21 18.03 Ю 2 10 км 9/0
[Ci sp]
+34.4 +7.8 19 +33 +33 жарко 1005.7 969.2
00 19.03 ЮВ 2 10 км 9/0
[Ci sp]
+31.0 +8.7 25 +30 +30 жарко 1006.0 969.7
03 19.03 ЮВ 2 10 км 9/0
[Ci sp]
+29.6 +8.2 26 +29 +29 жарко 1004.6 968.4
06 19.03 Ю 3 10 км 9/0
[Ci sp]
+29.8 +10.6 30 +30 +30 жарко 1005.5 969.2 +29.5
09 19.03 Ю 5 15 км 9/0
[Ci sp]
+35.7 +15.1 29 +37 +41 душно 1006.9 970.6
12 19.03 ЮЗ 3 15 км 9/1 600 м
[Sc Ci sp]
+39.0 +14.1 23 +40 +52 опасность
солнечного
удара
1006.0 969.7
15 19.03 З 1 15 км 9/3 600 м
[Sc Ci sp]
+41.0 +12.3 18 +40 +48 очень
жарко
1004.1 967.9
18 19.03 штиль 0 15 км 9/1 600 м
[Sc Ci sp]
+39.5 +14.6 23 +40 +40 очень
душно
1004.1 967.8 +42.0
21 19.03 штиль 0 10 км 9/0
[Ci sp]
+34.9 +14.5 29 +36 +36 душно 1005.3 969.0
00 20.03 ЮЗ 2 10 км 9/0
[Ci sp]
+32.5 +15.3 35 +35 +35 душно 1006.2 970.0
03 20.03 З 1 10 км 9/0
[Ci sp]
+30.5 +15.9 41 +33 +33 душно 1004.9 968.7
06 20.03 С 3 10 км 9/0
[Ci sp]
+30.2 +5.8 21 +29 +29 жарко 1006.5 970.2 +29.0
09 20.03 Ю 4 6000 м пыль 9/0
[Ac trans Ci sp]
+32.4 +9.1 24 +36 +39 очень
душно
1010.2 973.6
12 20.03 Ю 6 6000 м пыль 9/0
[Ac trans Ci sp]
+36.3 +15.1 28 +38 +42 очень
душно
1009.7 973.2
15 20.03 ЮЗ 5 10 км 9/0
[Ac trans Ci sp]
+38.5 +13.2 22 +38 +41 очень
жарко
1006.4 970.1
18 20.03 ЮЗ 3 10 км 9/0
[Ac trans Ci sp]
+38.0 +8.8 17 +36 +36 очень
жарко
1006.8 970.3 +39.6
21 20.03 Ю 2 10 км 9/0
[Ac trans Ci sp]
+34.8 +6.7 18 +33 +33 жарко 1008.2 971.7
00 21.03 ЮВ 2 10 км 9/0
[Ci sp]
+32.3 +7.1 21 +31 +31 жарко 1009.1 972.6
03 21.03 СВ 1 10 км 9/0
[Ci sp]
+30.0 +8.4 26 +29 +29 жарко 1007.7 971.2
06 21.03 СВ 1 600 м пыль {туман} 9/0
[Ci sp]
+28.5 +7.7 27 +28 +28 жарко 1008.5 971.9 +28.5
09 21.03 СВ 2 600 м пыль {туман} 9/0
[Ci sp]
+30.4 +7.7 24 +29 +37 жарко 1010.6 973.8
12 21.03 С 4 600 м пыль {туман} 9/0
[Ci sp]
+35.9 +7.7 18 +34 +45 очень
жарко
1009.0 972.4
15 21.03 С 2 6000 м пыль 9/0
[Ac trans Ci sp]
+37.9 +6.1 14 +35 +43 очень
жарко
1006.0 969.6
18 21.03 СВ 2 6000 м пыль 9/0
[Ac trans Ci sp]
+36.4 +6.2 16 +34 +34 очень
жарко
1006.7 970.0 +38.8
21 21.03 СВ 2 6000 м пыль 9/0
[Ci sp]
+32.0 +9.6 25 +31 +31 жарко 1009.3 972.4
00 22.03 СВ 3 6000 м пыль 9/0
[Ci sp]
+31.3 +4.8 19 +29 +29 жарко 1008.9 972.3
03 22.03 СВ 5 6000 м пыль 9/0
[Ci sp]
+29.4 +5.2 22 +28 +28 жарко 1006.8 970.3
06 22.03 СВ 4 6000 м пыль 9/0
[Ci sp]
+28.5 +3.1 20 +27 +27 жарко 1007.7 971.1 +28.3
09 22.03 СВ 4 6000 м пыль 9/0
[Ci sp]
+30.6 -0.3 14 +28 +33 жарко 1010.1 973.2
12 22.03 СВ 4 6000 м пыль 9/0
[Ci sp]
+37.0 +1.6 11 +34 +45 очень
жарко
1008.3 971.8
15 22.03 В 3 6000 м пыль 9/0
[Ci sp]
+39.0 +4.7 12 +36 +44 очень
жарко
1005.4 969.0
18 22.03 С 1 6000 м пыль 9/0
[Ci sp]
+37.4 +7.0 16 +35 +35 очень
жарко
1005.8 969.3 +40.0
21 22.03 С 2 8000 м пыль 9/0
[Ci sp]
+33.1 +6.8 20 +31 +31 жарко 1007.7 971.0
00 23.03 С 4 8000 м пыль 9/0
[Ci sp]
+31.5 +2.3 16 +29 +29 жарко 1008.5 972.0
03 23.03 СВ 4 8000 м пыль 9/0
[Ci sp]
+29.5 +1.6 17 +27 +27 жарко 1006.8 970.3
06 23.03 В 1 8000 м пыль 9/0
[Ci sp]
+27.1 +3.3 22 +26 +26 жарко 1007.2 970.5 +27.1
09 23.03 СВ 2 6000 м пыль 9/0
[Ci sp]
+31.7 -1.4 12 +28 +36 жарко 1009.9 973.1
12 23.03 В 2 6000 м пыль 9/0
[Ci sp]
+38.0 +1.3 10 +34 +52 опасность
солнечного
удара
1008.6 972.1
15 23.03 СВ 2 15 км 9/0
[Ac trans Ci sp]
+39.3 +5.1 12 +36 +44 очень
жарко
1005.5 969.1
18 23.03 С 3 15 км 9/0
[Ac trans Ci sp]
+36.4 +3.3 13 +33 +33 жарко 1005.9 969.2 +40.1
21 23.03 СВ 2 10 км 9/0
[Ci sp]
+32.3 +4.8 18 +30 +30 жарко 1008.0 971.3
00 24.03 СВ 2 10 км 9/0
[Ci sp]
+30.1 +2.9 18 +28 +28 жарко 1008.6 972.1
03 24.03 В 1 10 км 9/0
[Ci sp]
+28.1 +1.1 17 +26 +26 жарко 1007.4 970.8

 

Местоположение метеостанции Ouahigouya (Буркина-Фасо): широта 13.57 долгота -2.42 высота над уровнем моря 336 м.

В архиве по умолчанию представлена погода в Ouahigouya за последнюю неделю. Архивные данные за месяц целиком и за предыдущие месяцы, начиная с января 2011 года, Вы можете получить, выбрав интересующий диапазон дат из раскрывающегося списка и нажав кнопку "Ввод!".

Внимание! Время в таблицах - всемирное. Для получения местного времени необходимо прибавить поправку, которая в Ouahigouya равна 0 ч.

Смотрите также архив погоды в соседних городах и на ближайших метеорологических станциях:

Погода в Ouagadougou (Буркина-Фасо) (167 км)
Погода в Dedougou (Буркина-Фасо) (168 км)
Погода в Mopti (Мали) (210 км)
Погода в Boromo (Буркина-Фасо) (210 км)
Погода в San (Мали) (262 км)
Погода в Dori (Буркина-Фасо) (263 км)
Погода в Po (Буркина-Фасо) (302 км)
Погода в Navrongo (Гана) (330 км)
Погода в Bobo-Dioulasso (Буркина-Фасо) (337 км)
Погода в Fada N`Gourma (Буркина-Фасо) (348 км)

Пояснения к столбцам:

Ветер - указаны скорость ветра в м/с - средняя за 10 мин, порывы в срок и между сроками (в фигурных скобках) и направление, откуда дует ветер: С - северный, СВ - северо-восточный, В - восточный, ЮВ - юго-восточный, Ю - южный, ЮЗ - юго-западный, З - западный, СЗ - северо-западный.
Видимость - горизонтальная дальность видимости в метрах или километрах. При видимости от 1 до 10 км при отсутствии осадков обычно наблюдается дымка, при ухудшении видимости до 1 км и менее - туман. В сухую погоду видимость может ухудшаться дымом, пылью или мглою.
Явления - указаны атмосферные явления, наблюдавшиеся в срок или в последний час перед сроком; фигурными скобками обозначены явления, наблюдавшиеся между сроками (за 1-3 часа до срока); квадратными скобками обозначены град или гололедные отложения с указанием их диаметра в мм.
Облачность - указаны через наклонную черту общая и нижняя облачность в баллах и высота нижней границы облаков в метрах; квадратными скобками обозначены формы облаков: Ci - перистые, Cs - перисто-слоистые, Cc - перисто-кучевые, Ac - высококучевые, As - высокослоистые, Sc - слоисто-кучевые, Ns - слоисто-дождевые, Cu - кучевые, Cb - кучево-дождевые. Подробнее классификацию облаков см. в Атласе облаков (PDF).
T - Температура воздуха - температура, измеренная на высоте 2 м над землей.
Td - Температура точки росы - температура, при понижении до которой содержащийся в воздухе водяной пар достигнет насыщения.
f - Относительная влажность воздуха - влажноcть воздуха, измеренная на высоте 2 м над землей.
Te - Эффективная температура - температура, которую ощущает одетый по сезону человек в тени. Характеристика душности погоды. При расчете учитывается влияние влажности воздуха и скорости ветра на теплоощущения человека.
Tes - Эффективная температура на солнце - температура, которую ощущает человек, с поправкой на солнечный нагрев. Характеристика знойности погоды. Зависит от высоты солнца над горизонтом, облачности и скорости ветра. Ночью, в пасмурную погоду, а также при ветре 12 м/с и более поправка равна нулю.
P - Атмосферное давление - приведенное к уровню моря атмосферное давление.
Po - Атмосферное давление - измеренное на уровне метеостанции атмосферное давление.
Tmin - Минимальная температура - минимум температуры воздуха на высоте 2 м над землей.
Tmax - Максимальная температура - максимум температуры воздуха на высоте 2 м над землей.
R - Количество осадков - Количество выпавших осадков, мм. При наведении курсора мыши на число - период времени, за который выпало указанное количество осадков.
S - Снежный покров - Высота снежного покрова, см. При наведении курсора мыши на число - состояние снежного покрова и степень покрытия местности в баллах.